AE6DC-5 Weather Reports


time (UTC)temp
C
wind
direction
speed
KPH
gust
KPH
rain 1hr
cm
rain 24hr
cm
rain mn
cm
humidity
%
barometer
mb
20260507041039 12 315 12.9 16.1 0.00 0.10 0.10 91 1020.2
20260507040949 12 319 11.3 14.5 0.00 0.08 0.08 9 1020.1
20260507040459 12 310 12.9 16.1 0.00 0.10 0.10 91 1020.2
20260507035949 12 286 14.5 17.7 0.00 0.08 0.08 9 1020.0
20260507035839 12 286 14.5 17.7 0.00 0.10 0.10 91 1020.1
20260507035219 12 311 11.3 14.5 0.00 0.10 0.10 91 1020.1
20260507034949 12 300 9.7 14.5 0.00 0.08 0.08 9 1019.9
20260507034619 12 303 11.3 16.1 0.00 0.10 0.10 91 1020.0
20260507034019 12 311 9.7 12.9 0.00 0.10 0.10 91 1020.0
20260507033950 12 308 9.7 12.9 0.00 0.08 0.08 9 1019.9
20260507033419 12 316 12.9 17.7 0.00 0.10 0.10 90 1020.1
20260507032840 13 318 12.9 17.7 0.00 0.10 0.10 90 1020.0
20260507032216 13 311 14.5 16.1 0.00 0.10 0.10 90 1019.9
20260507031951 12 304 9.7 14.5 0.00 0.08 0.08 9 1019.8
20260507031617 13 297 12.9 16.1 0.00 0.10 0.10 90 1019.9
20260507031017 13 312 14.5 19.3 0.00 0.10 0.10 90 1019.8
20260507030420 13 320 16.1 19.3 0.00 0.10 0.10 90 1019.7
20260507025949 12 313 16.1 22.5 0.00 0.08 0.08 8 1019.6
20260507025840 13 313 17.7 22.5 0.00 0.10 0.10 90 1019.7
20260507025301 13 314 19.3 25.7 0.00 0.10 0.10 90 1019.6
20260507024949 12 312 14.5 17.7 0.00 0.08 0.08 8 1019.5
20260507024620 13 310 16.1 20.9 0.00 0.10 0.10 90 1019.6
20260507024017 13 315 16.1 19.3 0.00 0.10 0.10 90 1019.6
20260507023949 13 302 14.5 17.7 0.00 0.08 0.08 8 1019.4
20260507023417 13 304 14.5 17.7 0.00 0.10 0.10 89 1019.6
20260507022818 13 310 16.1 22.5 0.00 0.10 0.10 89 1019.7
20260507022218 13 304 14.5 17.7 0.00 0.10 0.10 89 1019.7
20260507021949 12 291 12.9 16.1 0.00 0.08 0.08 8 1019.5
20260507021618 13 298 14.5 19.3 0.00 0.10 0.10 89 1019.6
20260507021018 13 304 14.5 19.3 0.00 0.10 0.10 89 1019.6
20260507020949 13 304 14.5 20.9 0.00 0.08 0.08 8 1019.5
20260507015950 13 292 12.9 19.3 0.00 0.08 0.08 8 1019.5
20260507015830 13 293 12.9 19.3 0.00 0.10 0.10 89 1019.6
20260507015319 13 300 14.5 19.3 0.00 0.10 0.10 89 1019.7
20260507014638 13 304 16.1 20.9 0.00 0.10 0.10 88 1019.7
20260507014018 13 295 12.9 16.1 0.00 0.10 0.10 89 1019.7
20260507013950 13 294 12.9 16.1 0.00 0.08 0.08 8 1019.5
20260507013419 13 299 14.5 17.7 0.00 0.10 0.10 89 1019.6
20260507012839 13 305 17.7 24.1 0.00 0.10 0.10 88 1019.7
20260507012219 13 305 14.5 19.3 0.00 0.10 0.10 89 1019.7
20260507011950 13 301 16.1 20.9 0.00 0.08 0.08 8 1019.5
20260507011619 13 300 14.5 19.3 0.00 0.10 0.10 89 1019.5
20260507011019 13 298 14.5 20.9 0.00 0.10 0.10 88 1019.7
20260507010419 13 303 14.5 17.7 0.00 0.10 0.10 89 1019.6
20260507005950 12 303 14.5 19.3 0.00 0.08 0.08 8 1019.5
20260507005819 13 303 14.5 20.9 0.00 0.10 0.10 89 1019.7
20260507005219 13 304 14.5 19.3 0.00 0.10 0.10 89 1019.7
20260507004639 13 303 14.5 17.7 0.00 0.10 0.10 89 1019.6
20260507004019 13 301 14.5 17.7 0.00 0.10 0.10 89 1019.4
20260507003950 13 301 12.9 16.1 0.00 0.08 0.08 8 1019.3
20260507003416 13 303 14.5 20.9 0.00 0.10 0.10 89 1019.4
20260507002949 13 296 12.9 19.3 0.00 0.08 0.08 8 1019.4
20260507002817 13 296 14.5 19.3 0.00 0.10 0.10 89 1019.5
20260507002237 13 299 14.5 17.7 0.00 0.10 0.10 89 1019.3
20260507001950 12 302 12.9 16.1 0.00 0.08 0.08 8 1019.3
20260507001617 13 306 14.5 16.1 0.00 0.10 0.10 89 1019.5
20260507001020 13 304 14.5 19.3 0.00 0.10 0.10 89 1019.6
20260507000442 13 299 14.5 17.7 0.00 0.10 0.10 89 1019.5
20260506235950 12 295 12.9 19.3 0.00 0.08 0.08 8 1019.4
20260506235820 13 296 12.9 19.3 0.00 0.10 0.10 89 1019.5
20260506235220 13 304 14.5 19.3 0.00 0.10 0.10 89 1019.5
20260506234949 13 306 16.1 19.3 0.00 0.08 0.08 8 1019.4
20260506234617 13 306 14.5 17.7 0.00 0.10 0.10 89 1019.6
20260506234017 13 301 14.5 17.7 0.00 0.10 0.10 89 1019.7
20260506233950 13 297 14.5 17.7 0.00 0.08 0.08 8 1019.5
20260506233418 13 302 16.1 17.7 0.00 0.10 0.10 89 1019.7
20260506232818 13 303 14.5 19.3 0.00 0.10 0.10 89 1019.7
20260506232230 13 304 14.5 19.3 0.00 0.10 0.10 89 1019.8
20260506231950 12 303 14.5 19.3 0.00 0.08 0.08 8 1019.6
20260506231630 13 304 14.5 17.7 0.00 0.10 0.10 89 1019.7
20260506231038 13 300 14.5 19.3 0.00 0.10 0.10 89 1019.7
20260506230430 13 306 14.5 19.3 0.00 0.10 0.10 89 1019.8
20260506225950 13 303 12.9 17.7 0.00 0.08 0.08 8 1019.8
20260506225830 13 303 14.5 19.3 0.00 0.10 0.10 89 1019.9
20260506225218 13 303 14.5 19.3 0.00 0.10 0.10 89 1020.0
20260506224618 13 305 16.1 20.9 0.00 0.10 0.10 89 1020.0
20260506224024 13 303 14.5 19.3 0.00 0.10 0.10 89 1020.0
20260506223950 13 303 12.9 17.7 0.00 0.08 0.08 8 1019.9
20260506223419 13 308 14.5 20.9 0.00 0.10 0.10 89 1020.1
20260506222859 13 303 17.7 22.5 0.00 0.10 0.10 89 1020.2
20260506222219 13 307 17.7 20.9 0.00 0.10 0.10 88 1020.3
20260506221949 13 307 16.1 20.9 0.00 0.08 0.08 8 1020.1
20260506221639 13 307 14.5 17.7 0.00 0.10 0.10 88 1020.3
20260506221019 13 298 14.5 19.3 0.00 0.10 0.10 88 1020.3
20260506220439 13 307 12.9 17.7 0.00 0.10 0.10 88 1020.5
20260506215949 13 303 14.5 19.3 0.00 0.08 0.08 8 1020.5
20260506215840 13 303 16.1 20.9 0.00 0.10 0.10 88 1020.7
20260506215220 13 307 12.9 20.9 0.00 0.10 0.10 88 1020.6
20260506214949 13 303 12.9 16.1 0.00 0.08 0.08 8 1020.4
20260506214619 13 305 14.5 17.7 0.00 0.10 0.10 88 1020.5
20260506214020 13 303 14.5 17.7 0.00 0.10 0.10 88 1020.5
20260506213950 13 302 12.9 16.1 0.00 0.08 0.08 8 1020.4
20260506213420 13 306 12.9 19.3 0.00 0.10 0.10 88 1020.6
20260506212949 13 303 12.9 17.7 0.00 0.08 0.08 8 1020.4
20260506212817 13 303 14.5 17.7 0.00 0.10 0.10 88 1020.5
20260506212217 13 299 12.9 16.1 0.00 0.10 0.10 88 1020.5
20260506211949 13 304 12.9 14.5 0.00 0.08 0.08 8 1020.4
20260506211617 13 301 12.9 16.1 0.00 0.10 0.10 88 1020.5
20260506211020 13 302 14.5 17.7 0.00 0.10 0.10 87 1020.4
20260506210423 13 298 12.9 19.3 0.00 0.10 0.10 88 1020.4
20260506205949 13 304 11.3 19.3 0.00 0.08 0.08 8 1020.3
20260506205823 13 304 12.9 19.3 0.00 0.10 0.10 88 1020.5
20260506205244 13 303 12.9 17.7 0.00 0.10 0.10 87 1020.5
20260506204949 13 302 12.9 14.5 0.00 0.08 0.08 8 1020.5
20260506204623 13 302 12.9 16.1 0.00 0.10 0.10 87 1020.6
20260506204201 13 301 12.9 14.5 0.00 0.10 0.10 87 1020.7
20260506203949 13 303 12.9 17.7 0.00 0.08 0.08 8 1020.6
20260506203418 13 304 14.5 16.1 0.00 0.10 0.10 87 1020.8
20260506202818 13 301 12.9 16.1 0.00 0.10 0.10 87 1020.7
20260506202238 13 304 11.3 16.1 0.00 0.10 0.10 87 1020.7
20260506201949 13 300 11.3 14.5 0.00 0.08 0.08 8 1020.5
20260506201620 13 305 11.3 14.5 0.00 0.10 0.10 87 1020.6
20260506201021 13 307 11.3 14.5 0.00 0.10 0.10 87 1020.8
20260506200949 13 306 9.7 11.3 0.00 0.08 0.08 8 1020.7
20260506200430 13 305 9.7 12.9 0.00 0.10 0.10 87 1020.8
20260506195949 13 301 8.0 11.3 0.00 0.08 0.08 8 1020.6
20260506195851 13 301 9.7 12.9 0.00 0.10 0.10 87 1020.7
20260506195323 13 305 8.0 11.3 0.00 0.10 0.10 86 1020.9
20260506194642 -17 294 9.7 11.3 0.00 0.10 0.10
20260506194019 13 304 8.0 11.3 0.00 0.10 0.10 86 1020.8
20260506193949 13 301 8.0 12.9 0.00 0.08 0.08 8 1020.7
20260506193419 13 300 8.0 12.9 0.00 0.10 0.10 86 1021.0
20260506192949 13 302 8.0 11.3 0.00 0.08 0.08 8 1020.9
20260506192819 13 302 9.7 11.3 0.00 0.10 0.10 86 1021.1
20260506192219 13 304 9.7 12.9 0.00 0.10 0.10 86 1020.2
20260506191949 13 305 8.0 11.3 0.00 0.08 0.08 8 1020.6
20260506191619 13 302 9.7 12.9 0.00 0.10 0.10 86 1021.1
20260506191016 13 305 8.0 12.9 0.00 0.10 0.10 86 1021.0
20260506190419 13 310 8.0 11.3 0.00 0.10 0.10 86 1020.9
20260506185949 13 305 8.0 9.7 0.00 0.08 0.08 8 1020.6
20260506185820 13 306 8.0 11.3 0.00 0.10 0.10 86 1020.8
20260506185220 13 301 6.4 9.7 0.00 0.10 0.10 86 1020.5
20260506184949 13 299 6.4 9.7 0.00 0.08 0.08 8 1020.5
20260506184640 13 304 8.0 11.3 0.00 0.10 0.10 86 1020.6
20260506184020 13 296 8.0 9.7 0.00 0.10 0.10 86 1020.7
20260506183950 13 299 6.4 9.7 0.00 0.08 0.08 8 1020.6
20260506183420 13 306 6.4 8.0 0.00 0.10 0.10 86 1020.6
20260506182817 13 305 8.0 11.3 0.00 0.10 0.10 87 1020.9
20260506182217 13 298 6.4 9.7 0.00 0.10 0.10 86 1020.4
20260506181950 13 295 8.0 12.9 0.00 0.08 0.08 8 1020.3
20260506181617 13 295 8.0 11.3 0.00 0.10 0.10 87 1020.5
20260506181037 13 301 8.0 11.3 0.00 0.10 0.10 86 1021.0
20260506180420 13 300 6.4 9.7 0.00 0.10 0.10 87 1021.0
20260506175949 13 301 4.8 11.3 0.08 0.08 0.08 8 1020.6
20260506175821 13 301 6.4 11.3 0.10 0.10 0.10 87 1020.7
20260506175218 13 299 8.0 12.9 0.10 0.10 0.10 87 1020.5
20260506174624 13 297 9.7 11.3 0.10 0.10 0.10 87 1020.7
20260506174044 13 301 8.0 9.7 0.10 0.10 0.10 87 1020.8
20260506173949 13 297 6.4 11.3 0.08 0.08 0.08 8 1020.7
20260506173438 13 290 8.0 11.3 0.10 0.10 0.10 87 1020.4
20260506172949 13 296 8.0 9.7 0.08 0.08 0.08 8 1020.5
20260506172838 13 296 8.0 11.3 0.10 0.10 0.10 87 1020.6
20260506172258 13 301 8.0 11.3 0.10 0.10 0.10 87 1020.6
20260506171949 13 302 6.4 9.7 0.08 0.08 0.08 8 1020.4
20260506171639 13 300 8.0 9.7 0.10 0.10 0.10 87 1020.7
20260506171018 13 303 8.0 9.7 0.10 0.10 0.10 87 1020.8
20260506170949 13 302 8.0 9.7 0.08 0.08 0.08 8 1020.7
20260506170419 13 304 8.0 11.3 0.10 0.10 0.10 87 1020.9
20260506165949 13 308 6.4 8.0 0.00 0.00 0.00 8 1020.6
20260506165819 13 309 6.4 8.0 0.00 0.00 0.00 87 1020.7
20260506165239 13 310 6.4 8.0 0.00 0.00 0.00 87 1020.7
20260506164949 13 302 6.4 8.0 0.00 0.00 0.00 8 1020.5
20260506164619 13 313 6.4 8.0 0.00 0.00 0.00 87 1020.7
20260506164019 13 304 6.4 8.0 0.00 0.00 0.00 86 1020.7
20260506163949 13 302 4.8 6.4 0.00 0.00 0.00 8 1020.5
20260506163419 13 306 6.4 9.7 0.00 0.00 0.00 86 1020.7
20260506162949 13 322 4.8 4.8 0.00 0.00 0.00 8 1020.6
20260506162840 13 323 4.8 6.4 0.00 0.00 0.00 86 1020.7
20260506162219 13 313 6.4 8.0 0.00 0.00 0.00 86 1020.8
20260506161949 13 313 6.4 9.7 0.00 0.00 0.00 8 1020.6
20260506161619 13 303 8.0 9.7 0.00 0.00 0.00 86 1020.7
20260506161028 13 309 6.4 8.0 0.00 0.00 0.00 86 1020.7
20260506160429 13 314 6.4 6.4 0.00 0.00 0.00 86 1020.8
20260506155950 13 327 4.8 6.4 0.00 0.00 0.00 8 1020.6
20260506155829 13 328 4.8 6.4 0.00 0.00 0.00 86 1020.8
20260506155248 13 319 4.8 6.4 0.00 0.00 0.00 86 1020.7
20260506154949 13 318 3.2 4.8 0.00 0.00 0.00 8 1020.5
20260506154629 13 323 4.8 6.4 0.00 0.00 0.00 86 1020.7
20260506154029 13 296 6.4 6.4 0.00 0.00 0.00 86 1020.7
20260506153949 13 302 4.8 6.4 0.00 0.00 0.00 8 1020.5
20260506153429 13 303 4.8 6.4 0.00 0.00 0.00 86 1020.6
20260506152949 13 302 4.8 6.4 0.00 0.00 0.00 8 1020.5
20260506152829 13 303 6.4 8.0 0.00 0.00 0.00 86 1020.7
20260506152229 13 295 4.8 4.8 0.00 0.00 0.00 86 1020.7
20260506151950 13 306 3.2 6.4 0.00 0.00 0.00 8 1020.6
20260506151620 13 309 6.4 8.0 0.00 0.00 0.00 86 1020.7
20260506151029 13 286 3.2 4.8 0.00 0.00 0.00 86 1020.7
20260506150430 13 286 3.2 3.2 0.00 0.00 0.00 86 1020.7
20260506145949 13 326 3.2 6.4 0.00 0.00 0.00 8 1020.6
20260506145829 13 326 4.8 8.0 0.00 0.00 0.00 86 1020.7
20260506145221 13 324 8.0 9.7 0.00 0.00 0.00 86 1020.7
20260506144949 13 326 6.4 9.7 0.00 0.00 0.00 8 1020.5
20260506144621 13 335 8.0 12.9 0.00 0.00 0.00 86 1020.7
20260506144021 13 317 6.4 9.7 0.00 0.00 0.00 85 1020.7
20260506143949 13 314 4.8 8.0 0.00 0.00 0.00 8 1020.5
20260506143421 13 302 9.7 11.3 0.00 0.00 0.00 85 1020.6
20260506142949 13 329 8.0 12.9 0.00 0.00 0.00 8 1020.5
20260506142821 13 330 8.0 12.9 0.00 0.00 0.00 85 1020.6
20260506142221 13 312 8.0 9.7 0.00 0.00 0.00 85 1020.5
20260506141950 13 334 6.4 8.0 0.00 0.00 0.00 8 1020.4
20260506141621 13 314 6.4 9.7 0.00 0.00 0.00 85 1020.5
20260506141021 13 327 8.0 12.9 0.00 0.00 0.00 85 1020.4
20260506140421 13 335 8.0 11.3 0.00 0.00 0.00 85 1020.4
20260506135949 13 325 6.4 9.7 0.00 0.00 0.00 8 1020.2
20260506135841 13 326 8.0 9.7 0.00 0.00 0.00 84 1020.3
20260506135221 13 325 8.0 9.7 0.00 0.00 0.00 84 1020.2
20260506134622 13 334 8.0 12.9 0.00 0.00 0.00 84 1020.2
20260506134022 13 331 8.0 11.3 0.00 0.00 0.00 83 1020.1
20260506133949 13 333 8.0 11.3 0.00 0.00 0.00 8 1020.0
20260506133503 13 326 9.7 12.9 0.00 0.00 0.00 83 1020.1
20260506132822 13 334 8.0 11.3 0.00 0.00 0.00 82 1020.1
20260506132223 13 307 8.0 9.7 0.00 0.00 0.00 81 1019.9
20260506131950 13 299 8.0 11.3 0.00 0.00 0.00 8 1019.8
20260506131622 13 310 8.0 9.7 0.00 0.00 0.00 82 1019.9
20260506131023 13 308 9.7 12.9 0.00 0.00 0.00 82 1019.9
20260506130950 13 306 8.0 9.7 0.00 0.00 0.00 8 1019.7
20260506130423 13 327 9.7 11.3 0.00 0.00 0.00 82 1019.9
20260506125949 13 312 6.4 9.7 0.00 0.00 0.00 8 1019.7
20260506125822 13 313 8.0 11.3 0.00 0.00 0.00 82 1019.9
20260506125223 13 311 11.3 12.9 0.00 0.00 0.00 82 1019.8
20260506124949 13 305 9.7 12.9 0.00 0.00 0.00 8 1019.7
20260506124623 13 321 11.3 12.9 0.00 0.00 0.00 82 1019.8
20260506124023 13 305 9.7 12.9 0.00 0.00 0.00 82 1019.8
20260506123950 13 304 8.0 9.7 0.00 0.00 0.00 8 1019.6
20260506123417 13 318 9.7 12.9 0.00 0.00 0.00 83 1019.7
20260506122817 13 305 11.3 14.5 0.00 0.00 0.00 83 1019.6
20260506122238 13 314 9.7 11.3 0.00 0.00 0.00 83 1019.6
20260506121950 13 320 9.7 9.7 0.00 0.00 0.00 8 1019.5
20260506121624 13 317 9.7 12.9 0.00 0.00 0.00 83 1019.6
20260506121024 13 306 9.7 12.9 0.00 0.00 0.00 83 1019.6
20260506120949 13 307 9.7 12.9 0.00 0.00 0.00 8 1019.4
20260506120424 13 308 9.7 12.9 0.00 0.00 0.00 83 1019.5
20260506115950 13 292 8.0 12.9 0.00 0.00 0.00 8 1019.4
20260506115844 13 293 9.7 14.5 0.00 0.00 0.00 83 1019.5
20260506115224 13 308 9.7 12.9 0.00 0.00 0.00 83 1019.5
20260506114950 13 306 9.7 11.3 0.00 0.00 0.00 8 1019.3
20260506114618 13 306 9.7 12.9 0.00 0.00 0.00 83 1019.4
20260506114018 13 303 11.3 14.5 0.00 0.00 0.00 83 1019.4
20260506113950 13 301 9.7 12.9 0.00 0.00 0.00 8 1019.3
20260506113418 13 298 8.0 12.9 0.00 0.00 0.00 83 1019.4
20260506112949 13 303 8.0 11.3 0.00 0.00 0.00 8 1019.3
20260506112819 13 303 9.7 12.9 0.00 0.00 0.00 83 1019.4
20260506112218 13 306 9.7 12.9 0.00 0.00 0.00 83 1019.4
20260506111949 13 303 9.7 12.9 0.00 0.00 0.00 8 1019.2
20260506111639 13 301 11.3 14.5 0.00 0.00 0.00 83 1019.3
20260506111039 13 305 9.7 11.3 0.00 0.00 0.00 83 1019.2
20260506110951 13 303 9.7 11.3 0.00 0.00 0.00 8 1019.1
20260506110419 13 303 11.3 14.5 0.00 0.00 0.00 83 1019.2
20260506110000 13 300 11.3 14.5 0.00 0.00 0.00 83 1019.2
20260506105949 13 300 9.7 12.9 0.00 0.00 0.00 8 1019.0
20260506105219 13 304 11.3 14.5 0.00 0.00 0.00 83 1019.1
20260506104951 13 301 9.7 12.9 0.00 0.00 0.00 8 1019.0
20260506104619 13 303 12.9 14.5 0.00 0.00 0.00 83 1019.2
20260506104019 13 302 9.7 14.5 0.00 0.00 0.00 84 1019.2
20260506103949 13 302 8.0 11.3 0.00 0.00 0.00 8 1019.1
20260506103440 13 303 9.7 11.3 0.00 0.00 0.00 84 1019.2
20260506102820 13 302 11.3 12.9 0.00 0.00 0.00 84 1019.2
20260506102219 13 304 9.7 11.3 0.00 0.00 0.00 84 1019.1
20260506101951 13 305 8.0 11.3 0.00 0.00 0.00 8 1019.0
20260506101620 13 306 9.7 11.3 0.00 0.00 0.00 84 1019.1
20260506101039 13 304 9.7 11.3 0.00 0.00 0.00 84 1019.1
20260506100951 13 305 9.7 11.3 0.00 0.00 0.00 8 1019.0
20260506100420 13 305 9.7 9.7 0.00 0.00 0.00 84 1019.1
20260506095950 13 306 9.7 11.3 0.00 0.00 0.00 8 1018.9
20260506095820 13 307 11.3 12.9 0.00 0.00 0.00 84 1019.1
20260506095220 13 300 9.7 12.9 0.00 0.00 0.00 84 1019.1
20260506094949 13 297 8.0 11.3 0.00 0.00 0.00 8 1019.0
20260506094620 13 296 11.3 14.5 0.00 0.00 0.00 85 1019.1
20260506094020 13 299 9.7 12.9 0.00 0.00 0.00 85 1019.2
20260506093949 13 297 9.7 12.9 0.00 0.00 0.00 8 1019.0
20260506093420 13 298 8.0 11.3 0.00 0.00 0.00 85 1019.1
20260506092950 13 303 9.7 11.3 0.00 0.00 0.00 8 1018.9
20260506092820 13 303 9.7 12.9 0.00 0.03 0.00 86 1019.1
20260506092241 13 300 9.7 11.3 0.00 0.03 0.00 86 1019.1
20260506091949 13 292 6.4 9.7 0.00 0.00 0.00 8 1018.9
20260506091621 13 288 8.0 14.5 0.00 0.03 0.00 86 1019.1
20260506091020 13 301 6.4 11.3 0.00 0.03 0.00 86 1019.1
20260506090421 13 301 9.7 11.3 0.00 0.03 0.00 86 1019.1
20260506085949 13 289 8.0 9.7 0.00 0.00 0.00 8 1018.9
20260506085859 13 290 8.0 11.3 0.00 0.03 0.00 87 1019.1
20260506085219 13 300 6.4 11.3 0.00 0.03 0.00 87 1019.1
20260506084949 13 302 8.0 9.7 0.00 0.03 0.00 8 1018.9
20260506084639 13 301 9.7 12.9 0.00 0.03 0.00 87 1019.0
20260506084019 13 300 9.7 11.3 0.00 0.05 0.00 87 1019.1
20260506083949 13 300 8.0 11.3 0.00 0.08 0.00 8 1019.0
20260506083439 13 301 9.7 12.9 0.00 0.13 0.00 87 1019.2
20260506082819 13 303 11.3 12.9 0.00 0.18 0.00 87 1019.2
20260506082308 13 303 9.7 11.3 0.00 0.18 0.00 87 1019.2
20260506081950 13 302 8.0 9.7 0.00 0.15 0.00 8 1019.1
20260506081619 13 303 8.0 9.7 0.00 0.18 0.00 87 1019.2
20260506081019 13 303 9.7 11.3 0.00 0.23 0.00 87 1019.2
20260506080439 13 308 8.0 11.3 0.00 0.30 0.00 87 1019.2
20260506073417 13 303 9.7 12.9 0.00 0.38 0.00 87 1018.9
20260506072817 13 307 8.0 12.9 0.00 0.41 0.00 87 1018.9
20260506072220 13 302 9.7 12.9 0.00 0.41 0.00 86 1018.9
20260506071950 13 303 8.0 9.7 0.00 0.38 0.00 8 1018.7
20260506071620 14 304 8.0 9.7 0.00 0.41 0.00 86 1018.9
20260506071020 14 296 8.0 12.9 0.00 0.41 0.00 86 1018.8
20260506070500 14 281 11.3 12.9 0.00 0.41 0.00 86 1018.7
20260506062218 13 293 11.3 12.9 0.00 0.43 0.41 87 1018.5
20260506061949 13 293 9.7 14.5 0.00 0.43 0.38 8 1018.3
20260506061638 13 293 12.9 14.5 0.00 0.43 0.41 87 1018.5
20260506061038 13 293 12.9 16.1 0.00 0.43 0.41 87 1018.4
20260506060949 13 294 11.3 12.9 0.00 0.43 0.38 8 1018.3
20260506060422 13 295 11.3 16.1 0.00 0.46 0.41 88 1018.4
20260506051037 13 280 11.3 14.5 0.00 0.53 0.41 90 1018.2
20260506050422 13 282 12.9 14.5 0.00 0.56 0.41 90 1018.2
20260506044640 13 267 11.3 12.9 0.00 0.56 0.41 90 1018.0
20260506044020 13 250 8.0 11.3 0.00 0.56 0.41 90 1018.1
20260506043950 13 263 8.0 11.3 0.00 0.53 0.38 9 1017.9
20260506043420 13 265 9.7 11.3 0.00 0.56 0.41 90 1018.0
20260506042949 13 258 8.0 9.7 0.00 0.53 0.38 9 1017.8
20260506042820 13 259 9.7 11.3 0.00 0.56 0.41 90 1017.9
20260506042220 13 262 9.7 11.3 0.00 0.56 0.41 90 1017.9
20260506041951 13 259 8.0 11.3 0.00 0.53 0.38 9 1017.6
20260506041621 13 259 9.7 11.3 0.00 0.56 0.41 90 1017.7